User: anonymous   Login
Location: Unspecified
(0.0000°N, 0.0000°E)
Time: 14:53:47
(UTC+00:00)
Language:

Aussat K2 - Orbit

View from above orbital plane
View from above orbital plane
View from above satellite
View from above satellite

Ground track
Ground track

The orbit data is extracted from the following two-line orbital elements,

1 16275U 85109C   16144.57981216 -.00000331 +00000-0 +00000-0 0  9997
2 16275 015.0967 012.7104 0005025 216.8098 331.9819 00.99941260009780
Epoch (UTC): 23 May 2016 13:54:55
Eccentricity: 0.0005025
inclination: 15.0967°
perigee height: 35858 km
apogee height: 35900 km
right ascension of ascending node: 12.7104°
argument of perigee: 216.8098°
revolutions per day: 0.99941260
mean anomaly at epoch: 331.9819°
orbit number at epoch: 978

The dashed part of the orbit path shows where the satellite is in the earth's shadow,  

DLR